| time (UTC) | temp F | wind direction | speed knots | gust knots | rain 1hr in | rain 24hr in | rain mn in | humidity % | barometer mb |
| 20260508132916 | 57 | 62 | 6.1 | 14.8 | 0.00 | 0.00 | 0.00 | 30 | 976.6 |
| 20260508132416 | 58 | 129 | 6.1 | 14.8 | 0.00 | 0.00 | 0.00 | 30 | 977.0 |
| 20260508131846 | 57 | 54 | 5.2 | 13.0 | 0.00 | 0.00 | 0.00 | 31 | 977.0 |
| 20260508131346 | 57 | 65 | 4.3 | 13.0 | 0.00 | 0.00 | 0.00 | 28 | 977.0 |
| 20260508130846 | 58 | 120 | 2.6 | 7.8 | 0.00 | 0.00 | 0.00 | 28 | 977.0 |
| 20260508130346 | 58 | 229 | 2.6 | 11.3 | 0.00 | 0.00 | 0.00 | 30 | 977.0 |
| 20260508125846 | 58 | 131 | 3.5 | 11.3 | 0.00 | 0.00 | 0.00 | 30 | 977.0 |
| 20260508125316 | 57 | 275 | 4.3 | 11.3 | 0.00 | 0.00 | 0.00 | 29 | 977.0 |
| 20260508124816 | 58 | 143 | 4.3 | 9.6 | 0.00 | 0.00 | 0.00 | 30 | 977.0 |
| 20260508124316 | 58 | 154 | 5.2 | 16.5 | 0.00 | 0.00 | 0.00 | 30 | 977.0 |
| 20260508123816 | 57 | 206 | 6.1 | 16.5 | 0.00 | 0.00 | 0.00 | 27 | 977.0 |
| 20260508123316 | 58 | 66 | 4.3 | 17.4 | 0.00 | 0.00 | 0.00 | 26 | 977.0 |
| 20260508122816 | 58 | 281 | 4.3 | 17.4 | 0.00 | 0.00 | 0.00 | 26 | 977.0 |
| 20260508122316 | 59 | 237 | 3.5 | 10.4 | 0.00 | 0.00 | 0.00 | 28 | 977.0 |
| 20260508121816 | 58 | 96 | 4.3 | 13.0 | 0.00 | 0.00 | 0.00 | 29 | 977.0 |
| 20260508121316 | 58 | 183 | 5.2 | 14.8 | 0.00 | 0.00 | 0.00 | 29 | 977.0 |
| 20260508120816 | 57 | 246 | 7.0 | 18.2 | 0.00 | 0.00 | 0.00 | 29 | 977.0 |
| 20260508120246 | 56 | 117 | 7.8 | 18.2 | 0.00 | 0.00 | 0.00 | 33 | 977.0 |
| 20260508115746 | 57 | 62 | 7.0 | 17.4 | 0.00 | 0.00 | 0.00 | 32 | 977.0 |
| 20260508115246 | 56 | 29 | 7.0 | 16.5 | 0.00 | 0.00 | 0.00 | 32 | 977.0 |
| 20260508114746 | 55 | 42 | 7.0 | 16.5 | 0.00 | 0.00 | 0.00 | 32 | 977.0 |
| 20260508114216 | 56 | 57 | 4.3 | 15.6 | 0.00 | 0.00 | 0.00 | 31 | 977.0 |
| 20260508113716 | 58 | 72 | 5.2 | 14.8 | 0.00 | 0.00 | 0.00 | 32 | 977.0 |
| 20260508113216 | 57 | 185 | 5.2 | 14.8 | 0.00 | 0.00 | 0.00 | 33 | 977.0 |
| 20260508112716 | 57 | 25 | 5.2 | 14.8 | 0.00 | 0.00 | 0.00 | 30 | 977.0 |
| 20260508112216 | 58 | 56 | 5.2 | 15.6 | 0.00 | 0.00 | 0.00 | 30 | 977.0 |
| 20260508111716 | 58 | 9 | 5.2 | 15.6 | 0.00 | 0.00 | 0.00 | 30 | 977.0 |
| 20260508111146 | 57 | 60 | 5.2 | 15.6 | 0.00 | 0.00 | 0.00 | 30 | 977.0 |
| 20260508110646 | 58 | 122 | 4.3 | 12.2 | 0.00 | 0.00 | 0.00 | 30 | 977.0 |
| 20260508110146 | 57 | 35 | 5.2 | 15.6 | 0.00 | 0.00 | 0.00 | 28 | 977.1 |
| 20260508105646 | 57 | 215 | 6.1 | 15.6 | 0.00 | 0.00 | 0.00 | 33 | 977.0 |
| 20260508105146 | 57 | 61 | 6.1 | 18.2 | 0.00 | 0.00 | 0.00 | 29 | 977.0 |
| 20260508104646 | 58 | 86 | 7.0 | 18.2 | 0.00 | 0.00 | 0.00 | 31 | 977.0 |
| 20260508104146 | 56 | 108 | 7.8 | 18.2 | 0.00 | 0.00 | 0.00 | 31 | 977.1 |
| 20260508103646 | 56 | 74 | 7.0 | 15.6 | 0.00 | 0.00 | 0.00 | 31 | 977.0 |
| 20260508103116 | 56 | 49 | 5.2 | 15.6 | 0.00 | 0.00 | 0.00 | 33 | 977.1 |
| 20260508102616 | 57 | 66 | 4.3 | 14.8 | 0.00 | 0.00 | 0.00 | 27 | 977.0 |
| 20260508102116 | 58 | 275 | 4.3 | 13.0 | 0.00 | 0.00 | 0.00 | 29 | 977.0 |
| 20260508101546 | 57 | 73 | 3.5 | 13.0 | 0.00 | 0.00 | 0.00 | 28 | 977.1 |
| 20260508101016 | 58 | 194 | 3.5 | 10.4 | 0.00 | 0.00 | 0.00 | 31 | 977.0 |
| 20260508100516 | 56 | 48 | 5.2 | 13.0 | 0.00 | 0.00 | 0.00 | 32 | 977.1 |
| 20260508100016 | 56 | 216 | 7.0 | 13.9 | 0.00 | 0.00 | 0.00 | 33 | 977.1 |
| 20260508095446 | 55 | 59 | 7.8 | 14.8 | 0.00 | 0.00 | 0.00 | 31 | 977.1 |
| 20260508094946 | 55 | 60 | 7.8 | 14.8 | 0.00 | 0.00 | 0.00 | 32 | 977.2 |
| 20260508094416 | 55 | 65 | 6.1 | 13.9 | 0.00 | 0.00 | 0.00 | 31 | 977.3 |
| 20260508093916 | 56 | 92 | 4.3 | 12.2 | 0.00 | 0.00 | 0.00 | 33 | 977.4 |
| 20260508093346 | 58 | 163 | 4.3 | 14.8 | 0.00 | 0.00 | 0.00 | 33 | 977.4 |
| 20260508092846 | 56 | 56 | 4.3 | 14.8 | 0.00 | 0.00 | 0.00 | 35 | 977.3 |
| 20260508092346 | 57 | 312 | 4.3 | 12.2 | 0.00 | 0.00 | 0.00 | 37 | 977.5 |
| 20260508091845 | 56 | 171 | 6.1 | 13.9 | 0.00 | 0.00 | 0.00 | 39 | 977.5 |
| 20260508091345 | 55 | 56 | 5.2 | 13.9 | 0.00 | 0.00 | 0.00 | 36 | 977.5 |
| 20260508090845 | 55 | 98 | 5.2 | 13.9 | 0.00 | 0.00 | 0.00 | 37 | 977.5 |
| 20260508090345 | 56 | 117 | 5.2 | 13.0 | 0.00 | 0.00 | 0.00 | 37 | 977.5 |
| 20260508085845 | 54 | 55 | 6.1 | 14.8 | 0.00 | 0.00 | 0.00 | 38 | 977.5 |
| 20260508085345 | 55 | 156 | 5.2 | 17.4 | 0.00 | 0.00 | 0.00 | 40 | 977.5 |
| 20260508084845 | 55 | 44 | 3.5 | 17.4 | 0.00 | 0.00 | 0.00 | 37 | 977.5 |
| 20260508084345 | 55 | 182 | 4.3 | 11.3 | 0.00 | 0.00 | 0.00 | 42 | 977.9 |
| 20260508083815 | 54 | 57 | 6.1 | 12.2 | 0.00 | 0.00 | 0.00 | 43 | 977.8 |
| 20260508083315 | 52 | 72 | 6.1 | 12.2 | 0.00 | 0.00 | 0.00 | 45 | 977.4 |
| 20260508082746 | 52 | 67 | 6.1 | 13.0 | 0.00 | 0.00 | 0.00 | 47 | 977.5 |
| 20260508082246 | 51 | 236 | 7.0 | 13.0 | 0.00 | 0.00 | 0.00 | 47 | 977.8 |
| 20260508081745 | 50 | 79 | 7.0 | 12.2 | 0.00 | 0.00 | 0.00 | 49 | 977.8 |
| 20260508081245 | 51 | 74 | 7.0 | 12.2 | 0.00 | 0.00 | 0.00 | 50 | 977.8 |
| 20260508080745 | 50 | 59 | 7.0 | 13.0 | 0.00 | 0.00 | 0.00 | 48 | 977.5 |
| 20260508080245 | 50 | 63 | 7.0 | 13.0 | 0.00 | 0.00 | 0.00 | 50 | 977.8 |
| 20260508075745 | 49 | 38 | 7.0 | 13.0 | 0.00 | 0.00 | 0.00 | 50 | 977.6 |
| 20260508075215 | 49 | 13 | 6.1 | 13.0 | 0.00 | 0.00 | 0.00 | 53 | 978.1 |
| 20260508074715 | 48 | 66 | 6.1 | 12.2 | 0.00 | 0.00 | 0.00 | 56 | 978.0 |
| 20260508074215 | 46 | 42 | 5.2 | 9.6 | 0.00 | 0.00 | 0.00 | 57 | 978.1 |
| 20260508073645 | 45 | 47 | 6.1 | 9.6 | 0.00 | 0.00 | 0.00 | 57 | 978.0 |
| 20260508073145 | 45 | 70 | 6.1 | 11.3 | 0.00 | 0.00 | 0.00 | 57 | 978.0 |
| 20260508072645 | 45 | 31 | 7.0 | 13.0 | 0.00 | 0.00 | 0.00 | 55 | 977.6 |
| 20260508072145 | 46 | 47 | 7.8 | 13.0 | 0.00 | 0.00 | 0.00 | 54 | 978.0 |
| 20260508071645 | 48 | 51 | 7.0 | 13.9 | 0.00 | 0.00 | 0.00 | 53 | 978.0 |
| 20260508071115 | 48 | 26 | 7.0 | 13.9 | 0.00 | 0.00 | 0.00 | 53 | 978.0 |
| 20260508070615 | 48 | 44 | 7.0 | 13.9 | 0.00 | 0.00 | 0.00 | 53 | 978.0 |
| 20260508070045 | 48 | 42 | 6.1 | 13.9 | 0.00 | 0.00 | 0.00 | 51 | 977.5 |
| 20260508065515 | 48 | 70 | 5.2 | 11.3 | 0.00 | 0.00 | 0.00 | 50 | 978.0 |
| 20260508065015 | 49 | 22 | 5.2 | 11.3 | 0.00 | 0.00 | 0.00 | 51 | 978.1 |
| 20260508064445 | 47 | 33 | 6.1 | 12.2 | 0.00 | 0.00 | 0.00 | 53 | 978.0 |
| 20260508063945 | 47 | 68 | 6.1 | 13.9 | 0.00 | 0.00 | 0.00 | 52 | 977.6 |
| 20260508063445 | 46 | 51 | 7.0 | 13.9 | 0.00 | 0.00 | 0.00 | 54 | 978.0 |
| 20260508062945 | 47 | 19 | 6.1 | 12.2 | 0.00 | 0.00 | 0.00 | 51 | 978.0 |
| 20260508062415 | 46 | 43 | 6.1 | 12.2 | 0.00 | 0.00 | 0.00 | 52 | 978.0 |
| 20260508061915 | 46 | 56 | 6.1 | 12.2 | 0.00 | 0.00 | 0.00 | 51 | 978.0 |
| 20260508061345 | 46 | 51 | 6.1 | 11.3 | 0.00 | 0.00 | 0.00 | 53 | 978.0 |
| 20260508060815 | 44 | 7 | 7.0 | 13.9 | 0.00 | 0.00 | 0.00 | 53 | 978.0 |
| 20260508060315 | 44 | 19 | 7.0 | 13.9 | 0.00 | 0.00 | 0.00 | 55 | 978.0 |
| 20260508055815 | 44 | 30 | 6.1 | 13.9 | 0.00 | 0.00 | 0.00 | 53 | 978.0 |
| 20260508055315 | 44 | 0 | 6.1 | 11.3 | 0.00 | 0.00 | 0.00 | 56 | 978.0 |
| 20260508054745 | 43 | 20 | 6.1 | 11.3 | 0.00 | 0.00 | 0.00 | 55 | 978.0 |
| 20260508054245 | 43 | 21 | 6.1 | 12.2 | 0.00 | 0.00 | 0.00 | 54 | 978.0 |
| 20260508053745 | 42 | 9 | 7.0 | 12.2 | 0.00 | 0.00 | 0.00 | 58 | 978.0 |
| 20260508053245 | 43 | 18 | 6.1 | 12.2 | 0.00 | 0.00 | 0.00 | 56 | 978.0 |
| 20260508052745 | 42 | 16 | 5.2 | 10.4 | 0.00 | 0.00 | 0.00 | 56 | 978.0 |
| 20260508052245 | 43 | 21 | 5.2 | 9.6 | 0.00 | 0.00 | 0.00 | 56 | 978.0 |
| 20260508051715 | 42 | 13 | 4.3 | 9.6 | 0.00 | 0.00 | 0.00 | 56 | 978.0 |
| 20260508051145 | 43 | 16 | 4.3 | 7.8 | 0.00 | 0.00 | 0.00 | 55 | 977.6 |
| 20260508050645 | 43 | 20 | 3.5 | 7.8 | 0.00 | 0.00 | 0.00 | 54 | 977.5 |
| 20260508050145 | 45 | 29 | 3.5 | 7.8 | 0.00 | 0.00 | 0.00 | 48 | 977.6 |
| 20260508045615 | 47 | 14 | 1.7 | 6.1 | 0.00 | 0.00 | 0.00 | 47 | 977.6 |
| 20260508045115 | 51 | 337 | 0.9 | 4.3 | 0.00 | 0.00 | 0.00 | 44 | 978.0 |
| 20260508044615 | 52 | 174 | 0.9 | 2.6 | 0.00 | 0.00 | 0.00 | 47 | 978.1 |
| 20260508044045 | 49 | 163 | 0.9 | 3.5 | 0.00 | 0.00 | 0.00 | 50 | 978.0 |
| 20260508043545 | 47 | 128 | 1.7 | 3.5 | 0.00 | 0.00 | 0.00 | 54 | 978.0 |
| 20260508043045 | 44 | 251 | 1.7 | 3.5 | 0.00 | 0.00 | 0.00 | 55 | 978.0 |
| 20260508042545 | 44 | 246 | 1.7 | 3.5 | 0.00 | 0.00 | 0.00 | 56 | 978.0 |
| 20260508042015 | 43 | 243 | 1.7 | 4.3 | 0.00 | 0.00 | 0.00 | 56 | 978.0 |
| 20260508041515 | 43 | 257 | 1.7 | 4.3 | 0.00 | 0.00 | 0.00 | 56 | 978.0 |
| 20260508040945 | 43 | 247 | 1.7 | 3.5 | 0.00 | 0.00 | 0.00 | 56 | 978.0 |
| 20260508040445 | 43 | 276 | 1.7 | 3.5 | 0.00 | 0.00 | 0.00 | 55 | 978.0 |
| 20260508035945 | 43 | 293 | 1.7 | 3.5 | 0.00 | 0.00 | 0.00 | 54 | 977.5 |
| 20260508035445 | 43 | 307 | 1.7 | 3.5 | 0.00 | 0.00 | 0.00 | 53 | 977.6 |
| 20260508034945 | 42 | 294 | 1.7 | 3.5 | 0.00 | 0.00 | 0.00 | 54 | 977.6 |
| 20260508034445 | 43 | 282 | 0.9 | 3.5 | 0.00 | 0.00 | 0.00 | 54 | 977.5 |
| 20260508033945 | 44 | 305 | 0.9 | 3.5 | 0.00 | 0.00 | 0.00 | 55 | 978.0 |
| 20260508033445 | 42 | 297 | 0.9 | 3.5 | 0.00 | 0.00 | 0.00 | 61 | 977.5 |
| 20260508032915 | 39 | 292 | 1.7 | 3.5 | 0.00 | 0.00 | 0.00 | 62 | 977.4 |
| 20260508032415 | 39 | 288 | 0.9 | 2.6 | 0.00 | 0.00 | 0.00 | 64 | 977.4 |
| 20260508031914 | 39 | 294 | 0.9 | 1.7 | 0.00 | 0.00 | 0.00 | 65 | 977.4 |
| 20260508031414 | 38 | 284 | 0.9 | 2.6 | 0.00 | 0.00 | 0.00 | 68 | 977.4 |
| 20260508030914 | 37 | 136 | 1.7 | 2.6 | 0.00 | 0.00 | 0.00 | 72 | 977.4 |
| 20260508030414 | 35 | 258 | 2.6 | 3.5 | 0.00 | 0.00 | 0.00 | 76 | 977.5 |
| 20260508025844 | 33 | 246 | 2.6 | 3.5 | 0.00 | 0.00 | 0.00 | 80 | 977.3 |
| 20260508025344 | 32 | 255 | 2.6 | 3.5 | 0.00 | 0.00 | 0.00 | 84 | 977.3 |
| 20260508024844 | 31 | 248 | 2.6 | 3.5 | 0.00 | 0.00 | 0.00 | 87 | 977.2 |
| 20260508024344 | 31 | 240 | 2.6 | 3.5 | 0.00 | 0.00 | 0.00 | 86 | 977.2 |
| 20260508023844 | 30 | 250 | 2.6 | 3.5 | 0.00 | 0.00 | 0.00 | 87 | 977.2 |
| 20260508023314 | 30 | 270 | 2.6 | 3.5 | 0.00 | 0.00 | 0.00 | 86 | 977.3 |
| 20260508022814 | 30 | 263 | 1.7 | 3.5 | 0.00 | 0.00 | 0.00 | 85 | 977.3 |
| 20260508022314 | 31 | 274 | 1.7 | 3.5 | 0.00 | 0.00 | 0.00 | 83 | 977.3 |
| 20260508021744 | 31 | 312 | 1.7 | 3.5 | 0.00 | 0.00 | 0.00 | 81 | 977.3 |
| 20260508021214 | 32 | 352 | 0.9 | 3.5 | 0.00 | 0.00 | 0.00 | 81 | 977.2 |
| 20260508020714 | 33 | 8 | 0.9 | 3.5 | 0.00 | 0.00 | 0.00 | 80 | 977.2 |
| 20260508020144 | 33 | 186 | 0.0 | 1.7 | 0.00 | 0.00 | 0.00 | 82 | 977.4 |
| 20260508015644 | 33 | 151 | 0.0 | 1.7 | 0.00 | 0.00 | 0.00 | 81 | 977.3 |
| 20260508015144 | 33 | 135 | 0.0 | 1.7 | 0.00 | 0.00 | 0.00 | 80 | 977.3 |
| 20260508014614 | 33 | 189 | 0.0 | 1.7 | 0.00 | 0.00 | 0.00 | 78 | 977.2 |
| 20260508014114 | 33 | 179 | 0.0 | 1.7 | 0.00 | 0.00 | 0.00 | 79 | 977.2 |
| 20260508013614 | 32 | 204 | 0.0 | 1.7 | 0.00 | 0.00 | 0.00 | 76 | 977.2 |
| 20260508013044 | 32 | 272 | 0.9 | 2.6 | 0.00 | 0.00 | 0.00 | 75 | 977.1 |
| 20260508012544 | 32 | 243 | 0.9 | 2.6 | 0.00 | 0.00 | 0.00 | 76 | 977.1 |
| 20260508012014 | 33 | 240 | 0.9 | 1.7 | 0.00 | 0.00 | 0.00 | 76 | 977.0 |
| 20260508011514 | 33 | 230 | 0.9 | 1.7 | 0.00 | 0.00 | 0.00 | 75 | 977.2 |
| 20260508011014 | 33 | 278 | 0.9 | 1.7 | 0.00 | 0.00 | 0.00 | 75 | 977.1 |
| 20260508010514 | 33 | 251 | 0.0 | 0.9 | 0.00 | 0.00 | 0.00 | 74 | 977.1 |
| 20260508010014 | 33 | 267 | 0.0 | 0.9 | 0.00 | 0.00 | 0.00 | 73 | 977.2 |
| 20260508005514 | 34 | 26 | 0.0 | 1.7 | 0.00 | 0.00 | 0.00 | 73 | 977.1 |
| 20260508005014 | 34 | 276 | 0.9 | 2.6 | 0.00 | 0.00 | 0.00 | 71 | 977.2 |
| 20260508004514 | 34 | 345 | 0.9 | 2.6 | 0.00 | 0.00 | 0.00 | 71 | 977.1 |
| 20260508004014 | 34 | 46 | 0.9 | 3.5 | 0.00 | 0.00 | 0.00 | 71 | 977.1 |
| 20260508003514 | 34 | 66 | 0.9 | 3.5 | 0.00 | 0.00 | 0.00 | 72 | 977.0 |
| 20260508003014 | 33 | 38 | 0.0 | 1.7 | 0.00 | 0.00 | 0.00 | 73 | 977.0 |
| 20260508002514 | 33 | 259 | 0.0 | 0.9 | 0.00 | 0.00 | 0.00 | 73 | 977.0 |
| 20260508002013 | 33 | 270 | 0.9 | 1.7 | 0.00 | 0.00 | 0.00 | 73 | 977.0 |
| 20260508001443 | 33 | 274 | 0.9 | 1.7 | 0.00 | 0.00 | 0.00 | 72 | 977.0 |
| 20260508000943 | 34 | 331 | 0.9 | 1.7 | 0.00 | 0.00 | 0.00 | 71 | 977.0 |
| 20260508000414 | 34 | 283 | 0.9 | 0.9 | 0.00 | 0.00 | 0.00 | 71 | 977.0 |
| 20260507235913 | 34 | 235 | 0.0 | 0.9 | 0.00 | 0.00 | 0.00 | 71 | 977.0 |
| 20260507235413 | 35 | 252 | 0.0 | 1.7 | 0.00 | 0.00 | 0.00 | 71 | 977.0 |
| 20260507234913 | 35 | 267 | 0.9 | 1.7 | 0.00 | 0.00 | 0.00 | 70 | 977.0 |
| 20260507234343 | 35 | 210 | 0.9 | 0.9 | 0.00 | 0.00 | 0.00 | 71 | 977.0 |
| 20260507233843 | 34 | 237 | 0.9 | 1.7 | 0.00 | 0.00 | 0.00 | 71 | 977.0 |
| 20260507233313 | 34 | 283 | 0.9 | 1.7 | 0.00 | 0.00 | 0.00 | 71 | 976.6 |
| 20260507232813 | 34 | 262 | 1.7 | 1.7 | 0.00 | 0.00 | 0.00 | 71 | 976.5 |
| 20260507232313 | 34 | 268 | 1.7 | 1.7 | 0.00 | 0.00 | 0.00 | 71 | 976.4 |
| 20260507231743 | 34 | 258 | 0.9 | 1.7 | 0.00 | 0.00 | 0.00 | 71 | 976.3 |
| 20260507231243 | 34 | 280 | 0.9 | 1.7 | 0.00 | 0.00 | 0.00 | 71 | 976.4 |
| 20260507230743 | 34 | 263 | 0.9 | 1.7 | 0.00 | 0.00 | 0.00 | 70 | 976.3 |
| 20260507230243 | 35 | 273 | 0.9 | 1.7 | 0.00 | 0.00 | 0.00 | 70 | 976.3 |
| 20260507225743 | 35 | 261 | 1.7 | 1.7 | 0.00 | 0.00 | 0.00 | 70 | 976.3 |
| 20260507225243 | 35 | 272 | 1.7 | 2.6 | 0.00 | 0.00 | 0.00 | 70 | 976.3 |
| 20260507224743 | 35 | 275 | 1.7 | 2.6 | 0.00 | 0.00 | 0.00 | 70 | 976.2 |
| 20260507224243 | 35 | 272 | 1.7 | 2.6 | 0.00 | 0.00 | 0.00 | 70 | 976.2 |
| 20260507223743 | 34 | 274 | 1.7 | 1.7 | 0.00 | 0.00 | 0.00 | 69 | 976.2 |
| 20260507223243 | 34 | 279 | 1.7 | 1.7 | 0.00 | 0.00 | 0.00 | 69 | 976.2 |
| 20260507222743 | 35 | 276 | 1.7 | 1.7 | 0.00 | 0.00 | 0.00 | 68 | 976.1 |
| 20260507222243 | 35 | 260 | 1.7 | 2.6 | 0.00 | 0.00 | 0.00 | 68 | 976.2 |
| 20260507221743 | 35 | 262 | 2.6 | 4.3 | 0.00 | 0.00 | 0.00 | 68 | 976.1 |
| 20260507221213 | 36 | 272 | 2.6 | 4.3 | 0.00 | 0.00 | 0.00 | 66 | 976.1 |
| 20260507220643 | 36 | 276 | 2.6 | 3.5 | 0.00 | 0.00 | 0.00 | 66 | 976.2 |
| 20260507220143 | 36 | 270 | 1.7 | 3.5 | 0.00 | 0.00 | 0.00 | 66 | 976.0 |
| 20260507215643 | 36 | 294 | 0.9 | 3.5 | 0.00 | 0.00 | 0.00 | 67 | 976.1 |
| 20260507215143 | 36 | 259 | 0.0 | 1.7 | 0.00 | 0.00 | 0.00 | 67 | 976.0 |
| 20260507214643 | 36 | 240 | 0.0 | 1.7 | 0.00 | 0.00 | 0.00 | 66 | 976.0 |
| 20260507214143 | 37 | 114 | 0.9 | 1.7 | 0.00 | 0.00 | 0.00 | 64 | 976.0 |
| 20260507213643 | 37 | 27 | 1.7 | 4.3 | 0.00 | 0.00 | 0.00 | 65 | 976.1 |
| 20260507213143 | 37 | 305 | 2.6 | 5.2 | 0.00 | 0.00 | 0.00 | 64 | 976.0 |
| 20260507212613 | 38 | 262 | 3.5 | 7.0 | 0.00 | 0.00 | 0.00 | 64 | 976.0 |
| 20260507212043 | 38 | 248 | 3.5 | 7.0 | 0.00 | 0.00 | 0.00 | 64 | 976.0 |
| 20260507211513 | 38 | 271 | 3.5 | 7.0 | 0.00 | 0.00 | 0.00 | 64 | 976.0 |
| 20260507211013 | 38 | 253 | 3.5 | 7.0 | 0.00 | 0.00 | 0.00 | 64 | 976.0 |
| 20260507210513 | 38 | 246 | 3.5 | 6.1 | 0.00 | 0.00 | 0.00 | 64 | 975.6 |
| 20260507210013 | 38 | 257 | 3.5 | 7.0 | 0.00 | 0.00 | 0.00 | 63 | 975.6 |
| 20260507205513 | 38 | 237 | 3.5 | 7.0 | 0.00 | 0.00 | 0.00 | 63 | 975.4 |
| 20260507205013 | 38 | 261 | 3.5 | 7.0 | 0.00 | 0.00 | 0.00 | 62 | 975.5 |
| 20260507204513 | 39 | 234 | 3.5 | 7.8 | 0.00 | 0.00 | 0.00 | 62 | 975.4 |
| 20260507204012 | 39 | 236 | 3.5 | 7.8 | 0.00 | 0.00 | 0.00 | 61 | 975.4 |
| 20260507203512 | 39 | 232 | 3.5 | 7.0 | 0.00 | 0.00 | 0.00 | 60 | 975.2 |
| 20260507203012 | 39 | 245 | 3.5 | 8.7 | 0.00 | 0.00 | 0.00 | 60 | 975.1 |
| 20260507202512 | 39 | 263 | 3.5 | 8.7 | 0.00 | 0.00 | 0.00 | 59 | 975.0 |
| 20260507202012 | 40 | 245 | 2.6 | 7.0 | 0.00 | 0.00 | 0.00 | 58 | 975.1 |
| 20260507201512 | 40 | 202 | 2.6 | 7.0 | 0.00 | 0.00 | 0.00 | 58 | 975.1 |
| 20260507201012 | 40 | 197 | 2.6 | 7.0 | 0.00 | 0.00 | 0.00 | 58 | 975.0 |
| 20260507200512 | 40 | 232 | 2.6 | 6.1 | 0.00 | 0.00 | 0.00 | 58 | 975.0 |
| 20260507200012 | 40 | 226 | 2.6 | 6.1 | 0.00 | 0.00 | 0.00 | 57 | 975.0 |
| 20260507195512 | 40 | 260 | 2.6 | 6.1 | 0.00 | 0.00 | 0.00 | 56 | 975.0 |
| 20260507195012 | 41 | 254 | 2.6 | 6.1 | 0.00 | 0.00 | 0.00 | 55 | 975.0 |
| 20260507194442 | 41 | 240 | 2.6 | 5.2 | 0.00 | 0.00 | 0.00 | 54 | 975.0 |
| 20260507193912 | 41 | 242 | 1.7 | 4.3 | 0.00 | 0.00 | 0.00 | 53 | 975.0 |
| 20260507193412 | 42 | 220 | 1.7 | 6.1 | 0.00 | 0.00 | 0.00 | 53 | 975.0 |
| 20260507192912 | 42 | 210 | 2.6 | 7.0 | 0.00 | 0.00 | 0.00 | 53 | 975.0 |
| 20260507192342 | 43 | 194 | 2.6 | 7.0 | 0.00 | 0.00 | 0.00 | 52 | 974.6 |
| 20260507191842 | 43 | 173 | 3.5 | 7.8 | 0.00 | 0.00 | 0.00 | 50 | 974.6 |
| 20260507191342 | 44 | 182 | 3.5 | 8.7 | 0.00 | 0.00 | 0.00 | 48 | 974.5 |
| 20260507190842 | 44 | 152 | 3.5 | 8.7 | 0.00 | 0.00 | 0.00 | 47 | 974.3 |
| 20260507190342 | 45 | 136 | 3.5 | 9.6 | 0.00 | 0.00 | 0.00 | 45 | 974.3 |
| 20260507185842 | 45 | 187 | 2.6 | 9.6 | 0.00 | 0.00 | 0.00 | 43 | 974.3 |
| 20260507185312 | 45 | 120 | 1.7 | 9.6 | 0.00 | 0.00 | 0.00 | 42 | 974.2 |
| 20260507184812 | 45 | 98 | 1.7 | 7.0 | 0.00 | 0.00 | 0.00 | 41 | 974.2 |
| 20260507184312 | 45 | 191 | 1.7 | 7.0 | 0.00 | 0.00 | 0.00 | 41 | 974.2 |
| 20260507183812 | 45 | 99 | 1.7 | 7.0 | 0.00 | 0.00 | 0.00 | 43 | 974.0 |
| 20260507183312 | 44 | 97 | 1.7 | 8.7 | 0.00 | 0.00 | 0.00 | 45 | 974.0 |
| 20260507182812 | 44 | 155 | 1.7 | 8.7 | 0.00 | 0.00 | 0.00 | 44 | 974.0 |
| 20260507182312 | 45 | 145 | 2.6 | 8.7 | 0.00 | 0.00 | 0.00 | 43 | 974.0 |
| 20260507181812 | 45 | 122 | 2.6 | 11.3 | 0.00 | 0.00 | 0.00 | 43 | 974.0 |
| 20260507181312 | 45 | 90 | 3.5 | 11.3 | 0.00 | 0.00 | 0.00 | 43 | 973.6 |
| 20260507180812 | 46 | 136 | 3.5 | 9.6 | 0.00 | 0.00 | 0.00 | 40 | 974.0 |
| 20260507180312 | 46 | 187 | 3.5 | 9.6 | 0.00 | 0.00 | 0.00 | 38 | 973.6 |
| 20260507175812 | 46 | 175 | 2.6 | 9.6 | 0.00 | 0.00 | 0.00 | 38 | 973.5 |
| 20260507175242 | 46 | 127 | 2.6 | 9.6 | 0.00 | 0.00 | 0.00 | 37 | 973.5 |
| 20260507174742 | 46 | 184 | 2.6 | 9.6 | 0.00 | 0.00 | 0.00 | 38 | 973.4 |
| 20260507174242 | 46 | 152 | 2.6 | 9.6 | 0.00 | 0.00 | 0.00 | 37 | 973.4 |
| 20260507173712 | 47 | 161 | 2.6 | 7.0 | 0.00 | 0.00 | 0.00 | 40 | 973.4 |
| 20260507173212 | 47 | 124 | 0.9 | 7.0 | 0.00 | 0.00 | 0.00 | 39 | 973.4 |
| 20260507172712 | 47 | 336 | 0.9 | 7.8 | 0.00 | 0.00 | 0.00 | 39 | 973.3 |
| 20260507172212 | 47 | 189 | 1.7 | 7.8 | 0.00 | 0.00 | 0.00 | 37 | 973.2 |
| 20260507171712 | 46 | 40 | 1.7 | 7.8 | 0.00 | 0.00 | 0.00 | 38 | 973.2 |
| 20260507171212 | 46 | 98 | 1.7 | 7.8 | 0.00 | 0.00 | 0.00 | 38 | 973.2 |
| 20260507170711 | 46 | 151 | 1.7 | 7.8 | 0.00 | 0.00 | 0.00 | 39 | 973.0 |
| 20260507170211 | 46 | 133 | 2.6 | 7.8 | 0.00 | 0.00 | 0.00 | 41 | 973.0 |
| 20260507165711 | 46 | 131 | 2.6 | 7.8 | 0.00 | 0.00 | 0.00 | 38 | 973.0 |
| 20260507165211 | 47 | 73 | 2.6 | 7.0 | 0.00 | 0.00 | 0.00 | 41 | 973.0 |
| 20260507164711 | 46 | 246 | 2.6 | 8.7 | 0.00 | 0.00 | 0.00 | 39 | 973.0 |
| 20260507164211 | 47 | 135 | 3.5 | 8.7 | 0.00 | 0.00 | 0.00 | 40 | 973.0 |
| 20260507163711 | 46 | 197 | 4.3 | 11.3 | 0.00 | 0.00 | 0.00 | 41 | 973.0 |
| 20260507163211 | 46 | 184 | 5.2 | 11.3 | 0.00 | 0.00 | 0.00 | 40 | 973.0 |
| 20260507162711 | 46 | 173 | 4.3 | 11.3 | 0.00 | 0.00 | 0.00 | 39 | 973.0 |
| 20260507162211 | 47 | 187 | 3.5 | 11.3 | 0.00 | 0.00 | 0.00 | 40 | 973.0 |
| 20260507161711 | 47 | 162 | 3.5 | 10.4 | 0.00 | 0.00 | 0.00 | 41 | 973.0 |
| 20260507161211 | 47 | 187 | 3.5 | 10.4 | 0.00 | 0.00 | 0.00 | 39 | 973.0 |
| 20260507160711 | 47 | 236 | 2.6 | 7.8 | 0.00 | 0.00 | 0.00 | 38 | 973.0 |
| 20260507160141 | 47 | 208 | 2.6 | 5.2 | 0.00 | 0.00 | 0.00 | 39 | 973.0 |
| 20260507155641 | 48 | 197 | 1.7 | 7.8 | 0.00 | 0.00 | 0.00 | 39 | 973.0 |
| 20260507155111 | 47 | 66 | 3.5 | 8.7 | 0.00 | 0.00 | 0.00 | 40 | 973.0 |
| 20260507154541 | 47 | 150 | 4.3 | 15.6 | 0.00 | 0.00 | 0.00 | 40 | 973.0 |
| 20260507154041 | 47 | 183 | 5.2 | 15.6 | 0.00 | 0.00 | 0.00 | 41 | 972.6 |
| 20260507153541 | 47 | 187 | 5.2 | 11.3 | 0.00 | 0.00 | 0.00 | 41 | 973.0 |
| 20260507153011 | 47 | 199 | 5.2 | 12.2 | 0.00 | 0.00 | 0.00 | 41 | 973.0 |
| 20260507152511 | 47 | 226 | 6.1 | 16.5 | 0.00 | 0.00 | 0.00 | 40 | 973.0 |
| 20260507151941 | 47 | 187 | 6.1 | 16.5 | 0.00 | 0.00 | 0.00 | 39 | 972.6 |
| 20260507151411 | 48 | 238 | 5.2 | 13.0 | 0.00 | 0.00 | 0.00 | 38 | 972.6 |
| 20260507150911 | 48 | 195 | 5.2 | 13.0 | 0.00 | 0.00 | 0.00 | 39 | 972.5 |
| 20260507150411 | 47 | 199 | 5.2 | 13.0 | 0.00 | 0.00 | 0.00 | 38 | 972.4 |
| 20260507145841 | 48 | 172 | 4.3 | 11.3 | 0.00 | 0.00 | 0.00 | 38 | 972.4 |
| 20260507145341 | 49 | 151 | 4.3 | 11.3 | 0.00 | 0.00 | 0.00 | 35 | 972.3 |
| 20260507144811 | 50 | 192 | 3.5 | 11.3 | 0.00 | 0.00 | 0.00 | 33 | 972.4 |
| 20260507144241 | 53 | 95 | 2.6 | 7.8 | 0.00 | 0.00 | 0.00 | 33 | 972.3 |
| 20260507143741 | 54 | 88 | 1.7 | 7.0 | 0.00 | 0.00 | 0.00 | 31 | 972.4 |
| 20260507143241 | 55 | 94 | 2.6 | 11.3 | 0.00 | 0.00 | 0.00 | 33 | 972.4 |
| 20260507142711 | 53 | 67 | 1.7 | 11.3 | 0.00 | 0.00 | 0.00 | 34 | 972.3 |
| 20260507142211 | 53 | 82 | 1.7 | 8.7 | 0.00 | 0.00 | 0.00 | 35 | 972.4 |
| 20260507141641 | 51 | 65 | 2.6 | 8.7 | 0.00 | 0.00 | 0.00 | 34 | 972.3 |
| 20260507141141 | 49 | 139 | 3.5 | 10.4 | 0.00 | 0.00 | 0.00 | 38 | 972.4 |
| 20260507140611 | 48 | 119 | 4.3 | 10.4 | 0.00 | 0.00 | 0.00 | 40 | 972.3 |
| 20260507140111 | 47 | 182 | 3.5 | 10.4 | 0.00 | 0.00 | 0.00 | 39 | 972.2 |
| 20260507135610 | 48 | 184 | 2.6 | 7.8 | 0.00 | 0.00 | 0.00 | 37 | 972.3 |
| 20260507135111 | 48 | 111 | 2.6 | 8.7 | 0.00 | 0.00 | 0.00 | 37 | 972.3 |
| 20260507134610 | 48 | 170 | 2.6 | 10.4 | 0.00 | 0.00 | 0.00 | 36 | 972.2 |
| 20260507134110 | 49 | 91 | 3.5 | 11.3 | 0.00 | 0.00 | 0.00 | 36 | 972.1 |
| 20260507133610 | 49 | 195 | 4.3 | 11.3 | 0.00 | 0.00 | 0.00 | 38 | 972.1 |